Danbury, CT

11:11 PM EDT on March 22, 2017 (GMT -0400)
Danbury Municipal

Weather History for KDXR - August, 2013

Change the Weather History Date:

Tuesday, August 13, 2013

  Actual Average Record
Temperature  
Mean Temperature 68 °F -  
Max Temperature 75 °F 80 °F 96 °F (2005)
Min Temperature 64 °F 59 °F 43 °F (1957)
Cooling Degree Days 4    
Growing Degree Days 18 (Base 50)    
Moisture  
Dew Point 64 °F    
Average Humidity 86    
Maximum Humidity 94    
Minimum Humidity 71    
Precipitation  
Precipitation 0.20 in - - ()
Sea Level Pressure  
Sea Level Pressure 29.82 in    
Wind  
Wind Speed 1 mph (SSE)    
Max Wind Speed 8 mph    
Max Gust Speed -    
Visibility 6 miles    
Events Fog , Rain    
Averages and records for this station are not official NWS values.
T = Trace of Precipitation, MM = Missing Value Source: NWS Daily Summary

Daily Weather History Graph

Daily Weather History Graph

Search for Another Location

Airport or City:

Trip Planner

Search our weather history database for the weather conditions in past years. The results will help you decide how hot, cold, wet, or windy it might be!

Date:

Astronomy

Aug. 13, 2013 Rise Set
Actual Time 6:01 AM EDT 7:55 PM EDT
Civil Twilight 5:31 AM EDT 8:25 PM EDT
Nautical Twilight 4:54 AM EDT 9:01 PM EDT
Astronomical Twilight 4:15 AM EDT 9:40 PM EDT
Moon 12:58 PM EDT (8/13) 11:23 PM EDT (8/13)
Length of Visible Light 14h 54m
Length of Day
13h 54m
Waxing Crescent, 41% of the Moon is Illuminated
Aug 13
Waxing Crescent
Aug 14
First Quarter
Aug 20
Full
Aug 28
Last Quarter
Sep 5
New

Hourly Weather History & Observations

Time (EDT) Temp. Dew Point Humidity Pressure Visibility Wind Dir Wind Speed Gust Speed Precip Events Conditions
12:53 AM 64.0 °F 61.0 °F 90% 29.94 in 9.0 mi Calm Calm - N/A   Mostly Cloudy
1:53 AM 64.0 °F 61.0 °F 90% 29.91 in 9.0 mi Calm Calm - N/A   Partly Cloudy
2:53 AM 64.0 °F 61.0 °F 90% 29.90 in 8.0 mi Calm Calm - N/A   Clear
3:53 AM 64.0 °F 61.0 °F 90% 29.88 in 7.0 mi Calm Calm - N/A   Clear
4:15 AM 64.4 °F 62.6 °F 94% 29.89 in 6.0 mi Calm Calm - N/A   Scattered Clouds
4:26 AM 64.4 °F 62.6 °F 94% 29.88 in 4.0 mi Calm Calm - N/A   Mostly Cloudy
4:40 AM 64.4 °F 62.6 °F 94% 29.88 in 5.0 mi Calm Calm - N/A   Scattered Clouds
4:53 AM 64.0 °F 61.0 °F 90% 29.87 in 7.0 mi Calm Calm - N/A   Partly Cloudy
5:11 AM 64.4 °F 62.6 °F 94% 29.88 in 6.0 mi Calm Calm - N/A   Mostly Cloudy
5:32 AM 64.4 °F 62.6 °F 94% 29.87 in 1.8 mi ESE 3.5 mph - N/A   Overcast
5:38 AM 66.2 °F 64.4 °F 94% 29.87 in 1.0 mi Calm Calm - N/A   Overcast
5:48 AM 66.2 °F 64.4 °F 94% 29.87 in 0.5 mi SE 3.5 mph - N/A Fog Fog
5:53 AM 66.0 °F 64.0 °F 93% 29.86 in 0.5 mi Calm Calm - N/A Fog Fog
5:59 AM 66.2 °F 62.6 °F 88% 29.87 in 1.2 mi Calm Calm - N/A   Overcast
6:07 AM 66.2 °F 64.4 °F 94% 29.87 in 0.8 mi Calm Calm - N/A   Mist
6:53 AM 66.9 °F 64.9 °F 93% 29.86 in 1.2 mi Calm Calm - N/A   Overcast
7:01 AM 66.2 °F 62.6 °F 88% 29.86 in 3.0 mi Calm Calm - N/A   Overcast
7:08 AM 66.2 °F 64.4 °F 94% 29.86 in 2.0 mi Calm Calm - 0.00 in Rain Light Rain
7:29 AM 68.0 °F 64.4 °F 88% 29.86 in 3.0 mi Calm Calm - 0.00 in Rain Light Rain
7:41 AM 68.0 °F 66.2 °F 94% 29.86 in 2.0 mi Calm Calm - 0.00 in Rain Light Rain
7:50 AM 68.0 °F 66.2 °F 94% 29.86 in 1.8 mi Calm Calm - 0.01 in Rain Light Rain
7:53 AM 68.0 °F 66.0 °F 93% 29.85 in 1.8 mi Calm Calm - 0.01 in Rain Light Rain
8:00 AM 68.0 °F 66.2 °F 94% 29.86 in 2.5 mi Calm Calm - 0.00 in Rain Light Rain
8:38 AM 69.8 °F 66.2 °F 88% 29.87 in 2.5 mi SSW 4.6 mph - 0.01 in Rain Light Rain
8:53 AM 70.0 °F 66.0 °F 87% 29.86 in 3.0 mi South 3.5 mph - 0.03 in Rain Light Rain
9:08 AM 69.8 °F 66.2 °F 88% 29.85 in 2.5 mi Calm Calm - 0.02 in Rain Light Rain
9:53 AM 70.0 °F 66.9 °F 90% 29.84 in 2.5 mi South 6.9 mph - 0.08 in Rain Light Rain
10:53 AM 71.1 °F 66.9 °F 87% 29.80 in 2.5 mi SSE 6.9 mph - 0.05 in Rain Light Rain
11:00 AM 71.6 °F 66.2 °F 83% 29.81 in 4.0 mi South 8.1 mph - 0.01 in Rain Light Rain
11:53 AM 71.1 °F 66.9 °F 87% 29.79 in 5.0 mi SE 5.8 mph - 0.03 in Rain Light Rain
12:53 PM 71.1 °F 66.0 °F 84% 29.78 in 7.0 mi Variable 5.8 mph - 0.00 in   Mostly Cloudy
1:53 PM 72.0 °F 64.0 °F 76% 29.76 in 10.0 mi ESE 6.9 mph - N/A   Mostly Cloudy
2:53 PM 71.1 °F 63.0 °F 75% 29.76 in 9.0 mi Calm Calm - 0.00 in Rain Light Rain
3:00 PM 71.6 °F 62.6 °F 73% 29.76 in 7.0 mi Calm Calm - 0.00 in Rain Light Rain
3:07 PM 71.6 °F 62.6 °F 73% 29.76 in 6.0 mi Calm Calm - 0.00 in Rain Light Rain
3:53 PM 72.0 °F 64.0 °F 76% 29.74 in 9.0 mi Calm Calm - 0.00 in   Overcast
4:00 PM 71.6 °F 64.4 °F 78% 29.75 in 9.0 mi Calm Calm - N/A   Overcast
4:53 PM 73.0 °F 64.0 °F 73% 29.73 in 10.0 mi ESE 3.5 mph - N/A   Scattered Clouds
5:07 PM 73.4 °F 64.4 °F 73% 29.74 in 10.0 mi Calm Calm - N/A   Mostly Cloudy
5:32 PM 73.4 °F 64.4 °F 73% 29.73 in 10.0 mi Variable 3.5 mph - N/A   Scattered Clouds
5:53 PM 73.9 °F 64.9 °F 73% 29.72 in 10.0 mi South 3.5 mph - N/A   Scattered Clouds
6:53 PM 73.9 °F 64.0 °F 71% 29.72 in 10.0 mi SSW 4.6 mph - N/A   Partly Cloudy
7:53 PM 70.0 °F 64.0 °F 81% 29.72 in 9.0 mi South 6.9 mph - N/A   Clear
8:53 PM 69.1 °F 64.0 °F 84% 29.74 in 9.0 mi Calm Calm - N/A   Overcast
9:48 PM 69.8 °F 62.6 °F 78% 29.77 in 9.0 mi Calm Calm - N/A   Mostly Cloudy
9:53 PM 70.0 °F 63.0 °F 78% 29.76 in 9.0 mi WSW 4.6 mph - N/A   Mostly Cloudy
10:53 PM 69.1 °F 62.1 °F 78% 29.77 in 10.0 mi North 3.5 mph - N/A   Mostly Cloudy
11:53 PM 68.0 °F 62.1 °F 81% 29.77 in 10.0 mi Calm Calm - N/A   Overcast